Regional Weather Roundup
Issued by NWS

Home | Current Version | Previous Version | Text Only | Print | Product List | Glossary Off
Versions: 1 2 3 4 5 6 7 8 9 10 11 12 13 14 15 16 17 18 19 20 21 22 23 24 25 26 27 28 29 30 31 32 33 34 35 36 37 38 39 40 41 42 43 44 45 46 47 48 49 50

341
ASUS43 KLMK 200302
RWRKY
KENTUCKY REGIONAL WEATHER ROUNDUP
NATIONAL WEATHER SERVICE LOUISVILLE KY
1100 PM EDT SAT AUG 19 2017

NOTE "FAIR" INDICATES FEW OR NO CLOUDS BELOW 12,000 FEET
WITH NO SIGNIFICANT WEATHER AND/OR OBSTRUCTIONS TO VISIBILITY.

KYZ001>023-026-027-061>063-070>075-200400-
WESTERN AND SOUTH CENTRAL KENTUCKY

CITY           SKY/WX    TMP DP  RH WIND       PRES   REMARKS
PADUCAH        CLEAR     75  69  81 SW5       29.96R
HENDERSON      CLEAR     70  69  97 CALM      29.98R
OWENSBORO      CLEAR     75  71  87 S5        29.98R
HOPKINSVILLE   CLEAR     79  70  74 SE5       29.99R
BOWLING GREEN  CLEAR     77  69  76 CALM      30.00R
GLASGOW        CLEAR     72  70  95 CALM      30.01R
$$

KYZ024-025-028>034-038-045-046-053-200400-
NORTH CENTRAL KENTUCKY

CITY           SKY/WX    TMP DP  RH WIND       PRES   REMARKS
LOUISVILLE/SDF PTCLDY    80  68  66 SW3       29.98R
LOUISVILLE/LOU CLEAR     77  69  76 CALM      29.99R
FORT KNOX      CLEAR     72  69  91 CALM      29.99R
$$

KYZ035>037-039>044-047>052-055>060-089>105-200400-
NORTHEAST KENTUCKY

CITY           SKY/WX    TMP DP  RH WIND       PRES   REMARKS
LEXINGTON      CLEAR     75  66  73 S5        30.02R
COVINGTON      PTCLDY    74  69  85 CALM      30.00R
FRANKFORT      CLEAR     72  67  84 CALM      30.00R
$$

KYZ054-064>069-076>088-106>120-200400-
SOUTHEAST KENTUCKY

CITY           SKY/WX    TMP DP  RH WIND       PRES   REMARKS
JACKSON        CLEAR     73  67  81 CALM      30.05R
LONDON         CLEAR     72  69  90 CALM      30.05R
SOMERSET       NOT AVBL
MIDDLESBORO    CLEAR     71  68  90 CALM      30.07R
MONTICELLO     CLEAR     67  67 100 W10       30.06R
$$





USA.gov is the U.S. government's official web portal to all federal, state and local government web resources and services.